User: anonymous   Login
Location: Aalsum
(53.3404°N, 6.0062°E)
Time: 04:54:53
(UTC+00:00)
Language:

Cosmos 2026 Rocket - Orbit

View from above orbital plane
View from above orbital plane
View from above satellite
View from above satellite

Ground track
Ground track

The orbit data is extracted from the following two-line orbital elements,

1 20046U 89042B   24109.38332250  .00000129  00000-0  11182-3 0  9995
2 20046  82.9367 241.7337 0040675 264.7194  94.9322 13.78420322753029
Epoch (UTC): 18 April 2024 09:11:59
Eccentricity: 0.0040675
inclination: 82.9367°
perigee height: 939 km
apogee height: 999 km
right ascension of ascending node: 241.7337°
argument of perigee: 264.7194°
revolutions per day: 13.78420322
mean anomaly at epoch: 94.9322°
orbit number at epoch: 75302

The dashed part of the orbit path shows where the satellite is in the earth's shadow,  

DLR